#timestamp,LO_Frequency,Hit 
1501574415.5,286046685.2,N
1501574435.3,286046689.0,N
1501574455.1,286046692.0,N
1501574475.9,286046689.7,N
1501574495.7,286046692.3,N
1501574515.5,286046690.4,N
1501574535.4,286046683.1,N
1501574555.2,286046681.3,N
1501574575.0,286046680.2,N
1501574575.9,286046680.2,N
1501574595.8,286046678.2,N
1501574615.6,286046680.2,N
1501574635.4,286046681.5,N
1501574655.3,286046683.6,N
1501574675.1,286046686.6,N
1501574676.0,286046686.6,N
1501574695.8,286046685.1,N
1501574715.7,286046683.9,N
1501574735.5,286046688.8,N
1501574755.3,286046687.6,N
1501574775.1,286046686.7,N
1501574795.9,286046685.1,N
1501574815.7,286046683.1,N
1501574835.5,286046684.2,N
1501574855.4,286046680.4,N
1501574875.2,286046678.0,N
1501574895.0,286046673.8,N
1501574895.9,286046673.8,N
1501574915.8,286046669.5,N
1501574935.6,286046667.2,N
1501574955.4,286046666.8,N
1501574975.3,286046662.1,N
1501574995.1,286046660.6,N
1501574996.0,286046660.6,N
1501575015.8,286046661.1,N
1501575035.7,286046657.4,N
1501575055.5,286046655.0,N
1501575075.3,286046650.9,N
1501575095.1,286046652.3,N
1501575115.9,286046652.1,N
1501575135.7,286046648.9,N
1501575155.5,286046645.3,N
1501575175.4,286046644.9,N
1501575195.2,286046643.4,N
1501575215.0,286046643.3,N
1501575215.9,286046643.3,N
1501575235.8,286046641.7,N
1501575255.6,286046643.6,N
1501575275.4,286046643.1,N
1501575295.3,286046643.7,N
1501575315.1,286046644.0,N
1501575316.0,286046644.0,N
1501575335.8,286046640.7,N
1501575355.7,286046638.8,N
1501575375.5,286046638.8,N
1501575395.3,286046642.2,N
1501575415.2,286046641.5,N
1501575435.9,286046641.1,N
1501575455.7,286046639.4,N
1501575475.5,286046635.4,N
1501575495.4,286046636.1,N
1501575515.2,286046635.4,N
1501575535.0,286046635.0,N
1501575535.9,286046635.0,N
1501575555.8,286046633.5,N
1501575575.6,286046635.1,N
1501575595.4,286046637.2,N
1501575615.3,286046639.3,N
1501575635.1,286046640.4,N
1501575636.0,286046640.4,N
1501575655.8,286046640.5,N
1501575675.7,286046640.1,N
1501575695.5,286046644.6,N
1501575715.3,286046648.8,N
1501575735.2,286046646.9,N
1501575755.9,286046645.4,N
1501575775.7,286046645.1,N
1501575795.5,286046642.5,N
1501575815.4,286046639.1,N
1501575835.2,286046639.0,N
1501575855.0,286046638.9,N
1501575855.9,286046638.9,N
1501575875.8,286046637.8,N
1501575895.6,286046637.5,N
1501575915.4,286046636.6,N
1501575935.3,286046639.2,N
1501575955.1,286046637.4,N
1501575956.0,286046637.4,N
1501575975.8,286046635.3,N
1501575995.7,286046637.1,N
1501576015.5,286046637.3,N
1501576035.3,286046636.6,N
1501576055.2,286046638.9,N
1501576075.9,286046637.5,N
1501576095.7,286046635.3,N
1501576115.6,286046633.8,N
1501576135.4,286046631.8,N
1501576155.2,286046632.3,N
1501576175.0,286046630.7,N
1501576175.9,286046630.7,N
1501576195.8,286046630.0,N
1501576215.6,286046629.4,N
1501576235.4,286046626.3,N
1501576255.3,286046626.0,N
1501576275.1,286046626.6,N
1501576295.8,286046628.4,N
1501576315.7,286046628.9,N
1501576335.5,286046631.5,N
1501576355.3,286046628.9,N
1501576375.2,286046631.2,N
1501576395.9,286046628.7,N
1501576415.7,286046629.1,N
1501576435.6,286046629.0,N
1501576455.4,286046625.5,N
1501576475.2,286046627.6,N
1501576495.0,286046627.5,N
1501576496.0,286046627.5,N
1501576515.8,286046624.0,N
1501576535.6,286046624.8,N
1501576555.4,286046622.7,N
1501576575.3,286046623.6,N
1501576595.1,286046619.6,N
1501576615.8,286046616.2,N
1501576635.7,286046614.8,N
1501576655.5,286046611.1,N
1501576675.3,286046611.1,N
1501576695.2,286046617.1,N
1501576715.9,286046614.5,N
1501576735.7,286046611.4,N
1501576755.6,286046609.7,N
1501576775.4,286046607.8,N
1501576795.2,286046607.9,N
1501576815.1,286046607.3,N
1501576816.0,286046607.3,N
1501576835.8,286046607.1,N
1501576855.6,286046605.8,N
1501576875.4,286046609.0,N
1501576895.3,286046608.5,N
1501576915.1,286046605.2,N
1501576935.8,286046602.0,N
1501576955.7,286046603.6,N
1501576975.5,286046605.2,N
1501576995.3,286046607.4,N
1501577015.2,286046607.2,N
1501577035.9,286046607.2,N
1501577055.7,286046605.0,N
1501577075.6,286046605.9,N
1501577095.4,286046606.9,N
1501577115.2,286046609.2,N
1501577135.1,286046605.9,N
1501577136.0,286046605.9,N
1501577155.8,286046605.2,N
1501577175.6,286046607.3,N
1501577195.5,286046605.9,N
1501577215.3,286046604.3,N
1501577235.1,286046604.3,N
1501577255.8,286046601.9,N
1501577275.7,286046605.3,N
1501577295.5,286046605.0,N
1501577315.3,286046606.1,N
1501577335.2,286046606.2,N
1501577355.9,286046605.3,N
1501577375.7,286046603.7,N
1501577395.6,286046602.4,N
1501577415.4,286046602.3,N
1501577435.2,286046602.4,N
1501577455.1,286046601.0,N
1501577456.0,286046601.0,N
1501577475.8,286046598.2,N
1501577495.6,286046596.5,N
1501577515.5,286046596.5,N
1501577535.3,286046597.6,N
1501577555.1,286046597.4,N
1501577575.8,286046595.5,N
1501577595.7,286046595.2,N
1501577615.5,286046594.3,N
1501577635.3,286046594.0,N
1501577655.2,286046594.1,N
1501577675.0,286046590.4,N
1501577675.9,286046590.4,N
1501577695.7,286046588.8,N
1501577715.6,286046589.8,N
1501577735.4,286046589.9,N
1501577755.2,286046592.9,N
1501577775.1,286046593.0,N
1501577776.0,286046593.0,N
1501577795.8,286046590.3,N
1501577815.6,286046590.5,N
1501577835.5,286046591.4,N
1501577855.3,286046591.0,N
1501577875.1,286046589.7,N
1501577895.9,286046588.9,N
1501577915.7,286046591.0,N
1501577935.5,286046589.5,N
1501577955.3,286046587.8,N
1501577975.2,286046585.5,N
1501577995.0,286046585.8,N
1501577995.9,286046585.8,N
